{"data":{"norad_id":39253,"epoch":"2026-09-19T23:43:11.337024Z","epoch_age_seconds":62283,"freshness":"FRESH","line1":"1 39253U 13049A   26262.98832566  .00000099  00000+0  49375-4 0  9993","line2":"2 39253  29.7186  98.0292 0136428  65.3759 296.0958 13.55551165644297","mean_motion":13.55551165,"eccentricity":0.0136428,"inclination_deg":29.7186,"raan_deg":98.0292,"arg_perigee_deg":65.3759,"mean_anomaly_deg":296.0958,"bstar":4.9375e-5,"rev_number":64429,"period_min":106.22985226825,"perigee_km":950.53779670769,"apogee_km":1153.2709333777,"semimajor_km":7430.0413650427,"source":"CELESTRAK","updated_at":"2026-09-20T09:00:47.145984Z"}}